{"data":{"norad_id":48139,"epoch":"2026-09-19T16:57:13.834368Z","epoch_age_seconds":98844,"freshness":"FRESH","line1":"1 48139U 21027AZ  26262.70641012  .00001275  00000+0  52823-4 0  9994","line2":"2 48139  53.1605 329.8152 0001218  84.3828 275.7312 15.31704053302418","mean_motion":15.31704053,"eccentricity":0.0001218,"inclination_deg":53.1605,"raan_deg":329.8152,"arg_perigee_deg":84.3828,"mean_anomaly_deg":275.7312,"bstar":5.2823e-5,"rev_number":30241,"period_min":94.012939195376,"perigee_km":469.89372172373,"apogee_km":471.56210521665,"semimajor_km":6848.8649134702,"source":"CELESTRAK","updated_at":"2026-09-20T09:00:38.924813Z"}}